Showing default

TIANQI 17, 64059

Orbit data source: Space-Track

TIANQI 17, 64059 is a payload satellite owned by Guodian Gaokeji (CN) in LEO that was launched on Mon, 19 May 2025 UTC via a GUSHENXING 1 launch vehicle from the Yellow Sea Launch Area, China (YSLA). Payload-class satellites include a variety of spacecraft equipped with specific instruments for various scientific and technological missions. These include communications satellites like Starlink; space stations such as the ISS; scientific satellites like the Hubble; Earth observation satellites from companies like Planet Labs, Umbra, and HawkEye 360; GPS; miniature CubeSats for education and research; and military/defense satellites.

Loading next visibility...
Identifier
64059, 2025-105B
Orbit
LEO
Country
Flag of CNCN / PRC
Related business
Manufacturer
Shanghai ASES
Mission
Operational Commercial Communications
Bus & Motor
STARLIGHTB, Unknown motor
Mass
40 kg wet, ~40 kg dry
Launch date (UTC)
2025-05-19 (7 months ago)
Launch vehicle
GUSHENXING 1
Launch site
Yellow Sea Launch Area, China (YSLA)
Object type
Payload
Rocket body
Debris
Shape & HBR
Box, 0.3 m
Radar Cross Section
0.195 m², Medium (>0.1 m² and < 1m²)

Expand to show TLE details & history
Last TLE update: 19 hours ago

TLE from 19 hours ago
0 TIANQI 17
1 64059U 25105B   25348.84365581  .00000040  00000-0  11533-3 0  9999
2 64059  44.9791 121.8787 0010689 228.4025 131.5892 13.99067130 29381
Epoch: 2025-12-14T20:14Z
TLE epoch observation values (Epoch: 2025-12-14T20:14:51.861Z)
Latitude
Longitude
94.41186°
Altitude
902.19 km
Speed
7.4 km/s
True Right ascension
08h 07m 30s
True Declination
0° 00' 00"
Sunlit
Object was in full shadow at epoch
Visualization orbit readout
Latitude
Unknown
Longitude
Unknown
Altitude
Unknown
Speed
Unknown
Apparent Right ascension
Unknown
Apparent Declination
Unknown
Sunlit
N/A
Visualization observer readout
Local Sidereal Time
13:26:12
Azimuth
Unknown
Elevation
Unknown
Doppler factor
Unknown
Orbital elements
Apogee altitude
906.327 km
Perigee altitude
890.771 km
Semi-major axis
7,276.686 km
Eccentricity
0.00107
Inclination
44.9791°
RAAN
121.8787°
Arg. of periapsis
228.4025°
True anomaly
131.68073°
Mean anomaly
131.5892°
Eccentric anomaly
131.63497°
Mean motion
3.49657 °/min
Orbital period
102.96 mins
BSTAR
0.00011533
Loading maneuver chart data...
Computing Atmospheric mass density...
Loading historical data...
Loading historical data...
Loading historical data...
Loading historical data...
Loading historical data...
Loading historical data...
Loading historical data...
Other satellites on launch #105 in the year 2025 (2025-05-19 UTC)

Documentation

Showing up to 5 results
|